Regional Weather Roundup
Issued by NWS Cleveland, OH

Home | Current Version | Previous Version | Text Only | Print | Product List | Glossary Off
Versions: 1 2 3 4 5 6 7 8 9 10 11 12 13 14 15 16 17 18 19 20 21 22 23 24 25 26 27 28 29 30 31 32 33 34 35 36 37 38 39 40 41 42 43 44 45 46 47 48 49 50

000
ASUS41 KCLE 011100
RWRCLE
OHIO REGIONAL WEATHER ROUNDUP
NATIONAL WEATHER SERVICE WILMINGTON, OH
700 AM EDT SAT AUG 01 2015

NOTE: "FAIR" INDICATES FEW OR NO CLOUDS BELOW 12,000 FEET WITH NO
SIGNIFICANT WEATHER AND/OR OBSTRUCTIONS TO VISIBILITY.

OHZ001>008-015>018-024>027-034-035-043-044-011200-
   NORTHWEST OHIO

CITY           SKY/WX    TMP DP  RH WIND       PRES   REMARKS
DEFIANCE       CLEAR     59  54  83 SW3       29.95S
FINDLAY        PTCLDY    61  55  81 W8        29.94S
TOLEDO EXPRESS CLEAR     60  54  80 W5        29.93S
TOLEDO EXEC    CLEAR     61  53  75 SW3       29.93S
LIMA           CLEAR     61  55  81 SW6       29.97R
$$

OHZ009>014-019>023-028>033-038-089-011200-
   NORTHEAST OHIO

CITY           SKY/WX    TMP DP  RH WIND       PRES   REMARKS
CLE-HOPKINS    CLEAR     63  55  75 SW7       29.94R
CLE-LAKEFRONT  CLEAR     68  58  70 SW8       29.90R
CUY CO. ARPT   PTCLDY    66  61  82 SW8       29.91
LORAIN-ELYRIA  NOT AVBL
ASHTABULA      PTCLDY    59  58  96 CALM      29.91R
AKRON-CANTON   CLEAR     63  55  75 W7        29.93R
WOOSTER        NOT AVBL
MANSFIELD      CLEAR     62  54  74 W7        29.95S
YOUNGSTOWN     PTCLDY    61  58  90 CALM      29.92R
$$

OHZ042-051>053-060>062-070>072-077>081-011200-
  SOUTHWEST OHIO

CITY           SKY/WX    TMP DP  RH WIND       PRES   REMARKS
CINC-COVINGTON PTCLDY    61  60  97 CALM      29.99R
CINC-LUNKEN    CLEAR     61  61 100 CALM      29.99R
HAMILTON       CLEAR     60  58  92 CALM      29.99R
DAYTON         NOT AVBL
WRIGHT-PAT AFB CLEAR     62  60  93 CALM      29.97R
DAYTON GENERAL CLEAR     64  58  80 W3        29.97S
WILMINGTON     CLEAR     59  57  93 CALM      29.98R
$$

OHZ036-037-039>041-045>050-054>059-063>069-073>076-082>088-011200-
  CENTRAL AND SOUTHEAST OHIO

CITY           SKY/WX    TMP DP  RH WIND       PRES   REMARKS
COLUMBUS       PTCLDY    62  61  96 CALM      29.95S
OSU AIRPORT    CLEAR     61  58  90 W7        29.96S
BOLTON FIELD   NOT AVBL
RICKENBACK AFB NOT AVBL
NEWARK         CLEAR     60  59  96 CALM      29.95S FOG
MARION         CLEAR     62  54  74 W6        29.96R
LANCASTER      CLEAR     57  56  96 CALM      29.96S FOG
ZANESVILLE     CLEAR     62  59  90 CALM      29.95R
NEW PHILLY     CLEAR     58  57  97 CALM      29.94S
$$



USA.gov is the U.S. government's official web portal to all federal, state and local government web resources and services.